Weather History for Plant City, FL

Change the Weather History Date:

Sunday, December 23, 2012

  Actual Average Record
Temperature  
Mean Temperature 50 °F -  
Max Temperature 68 °F 73 °F 86 °F (2011)
Min Temperature 33 °F 50 °F 26 °F (1973)
Degree Days  
Heating Degree Days 14    
Moisture  
Dew Point 33 °F    
Average Humidity 52    
Maximum Humidity 100    
Minimum Humidity 16    
Precipitation  
Precipitation 0.00 in - - ()
Sea Level Pressure  
Sea Level Pressure 30.24 in    
Wind  
Wind Speed 2 mph (ENE)    
Max Wind Speed 10 mph    
Max Gust Speed -    
Visibility 10 miles    
Events      
Averages and records for this station are not official NWS values.
T = Trace of Precipitation, MM = Missing Value Source: NWS Daily Summary

Daily Weather History Graph

Daily Weather History Graph

Search for Another Location

Airport:

Trip Planner

Search our weather history database for the weather conditions in past years. The results will help you decide how hot, cold, wet, or windy it might be!

Date:

Astronomy

Dec. 23, 2012 Rise Set
Actual Time 7:16 AM EST 5:39 PM EST
Civil Twilight 6:51 AM EST 6:04 PM EST
Nautical Twilight 6:21 AM EST 6:34 PM EST
Astronomical Twilight 5:53 AM EST 7:02 PM EST
Moon 2:20 PM EST (12/23) 3:09 AM EST (12/23)
Length of Visible Light 11h 13m
Length of Day
10h 22m
Waxing Gibbous, 81% of the Moon is Illuminated
Dec 23
Waxing Gibbous
Dec 28
Full
Jan 4
Last Quarter
Jan 11
New
Jan 18
First Quarter

Hourly Weather History & Observations

Time (EST) Temp. Windchill Dew Point Humidity Pressure Visibility Wind Dir Wind Speed Gust Speed Precip Events Conditions
12:15 AM 39.2 °F - 35.6 °F 87% 30.27 in 10.0 mi Calm Calm - N/A   Clear
12:35 AM 39.2 °F - 35.6 °F 87% 30.27 in 10.0 mi Calm Calm - N/A   Clear
12:55 AM 37.4 °F - 35.6 °F 93% 30.27 in 10.0 mi Calm Calm - N/A   Clear
1:15 AM 37.4 °F - 35.6 °F 93% 30.27 in 10.0 mi Calm Calm - N/A   Clear
1:35 AM 37.4 °F - 37.4 °F 100% 30.27 in 10.0 mi Calm Calm - N/A   Clear
1:55 AM 37.4 °F - 37.4 °F 100% 30.26 in 10.0 mi Calm Calm - N/A   Clear
2:15 AM 39.2 °F - 35.6 °F 87% 30.26 in 10.0 mi Calm Calm - N/A   Clear
2:35 AM 37.4 °F 31.4 °F 35.6 °F 93% 30.26 in 10.0 mi East 8.1 mph - N/A   Clear
2:55 AM 35.6 °F 29.9 °F 35.6 °F 100% 30.26 in 10.0 mi East 6.9 mph - N/A   Clear
3:15 AM 35.6 °F 30.7 °F - N/A% 30.26 in 10.0 mi ENE 5.8 mph - N/A   Clear
3:35 AM 35.6 °F 29.2 °F - N/A% 30.25 in 10.0 mi ENE 8.1 mph - N/A   Clear
3:55 AM 35.6 °F 28.0 °F - N/A% 30.25 in 10.0 mi ENE 10.4 mph - N/A   Clear
4:15 AM 35.6 °F 28.6 °F - N/A% 30.25 in 10.0 mi East 9.2 mph - N/A   Clear
4:35 AM 37.4 °F 31.4 °F - N/A% 30.25 in 10.0 mi East 8.1 mph - N/A   Clear
4:55 AM 37.4 °F 31.4 °F - N/A% 30.25 in 10.0 mi East 8.1 mph - N/A   Clear
5:15 AM 37.4 °F 31.4 °F - N/A% 30.25 in 10.0 mi East 8.1 mph - N/A   Clear
5:35 AM 33.8 °F 28.6 °F - N/A% 30.25 in 10.0 mi East 5.8 mph - N/A   Clear
5:55 AM 37.4 °F 32.8 °F - N/A% 30.26 in 10.0 mi ENE 5.8 mph - N/A   Clear
6:15 AM 35.6 °F 30.7 °F - N/A% 30.25 in 10.0 mi ENE 5.8 mph - N/A   Clear
6:35 AM 37.4 °F 30.8 °F - N/A% 30.26 in 10.0 mi East 9.2 mph - N/A   Clear
6:55 AM 37.4 °F 30.8 °F - N/A% 30.27 in 10.0 mi East 9.2 mph - N/A   Clear
7:15 AM 39.2 °F 35.0 °F 37.4 °F 93% 30.28 in 10.0 mi ENE 5.8 mph - N/A   Clear
7:35 AM 37.4 °F - 35.6 °F 93% 30.27 in 10.0 mi Calm Calm - N/A   Clear
7:55 AM 39.2 °F - 35.6 °F 87% 30.28 in 10.0 mi Calm Calm - N/A   Clear
8:15 AM 41.0 °F - 35.6 °F 81% 30.28 in 10.0 mi Calm Calm - N/A   Clear
8:35 AM 44.6 °F - 37.4 °F 76% 30.28 in 10.0 mi Calm Calm - N/A   Clear
8:55 AM 48.2 °F - 35.6 °F 62% 30.29 in 10.0 mi Calm Calm - N/A   Clear
9:15 AM 50.0 °F - 33.8 °F 54% 30.29 in 10.0 mi Calm Calm - N/A   Clear
9:35 AM 51.8 °F - 33.8 °F 50% 30.30 in 10.0 mi Calm Calm - N/A   Clear
9:55 AM 53.6 °F - 28.4 °F 38% 30.30 in 10.0 mi East 4.6 mph - N/A   Clear
10:15 AM 55.4 °F - 28.4 °F 36% 30.30 in 10.0 mi East 3.5 mph - N/A   Clear
10:35 AM 57.2 °F - 28.4 °F 33% 30.29 in 10.0 mi East 8.1 mph - N/A   Clear
10:55 AM 57.2 °F - 30.2 °F 36% 30.30 in 10.0 mi Calm Calm - N/A   Clear
11:15 AM 59.0 °F - 30.2 °F 34% 30.28 in 10.0 mi East 5.8 mph - N/A   Clear
11:35 AM 59.0 °F - 26.6 °F 29% 30.27 in 10.0 mi ESE 5.8 mph - N/A   Clear
11:55 AM 60.8 °F - 24.8 °F 25% 30.27 in 10.0 mi Calm Calm - N/A   Clear
12:15 PM 62.6 °F - 24.8 °F 24% 30.25 in 10.0 mi Calm Calm - N/A   Clear
12:35 PM 62.6 °F - 19.4 °F 19% 30.24 in 10.0 mi SSE 3.5 mph - N/A   Clear
12:55 PM 64.4 °F - 19.4 °F 18% 30.23 in 10.0 mi South 3.5 mph - N/A   Clear
1:15 PM 64.4 °F - 21.2 °F 19% 30.22 in 10.0 mi Calm Calm - N/A   Clear
1:35 PM 64.4 °F - 21.2 °F 19% 30.21 in 10.0 mi Calm Calm - N/A   Clear
1:55 PM 66.2 °F - 21.2 °F 18% 30.21 in 10.0 mi Calm Calm - N/A   Clear
2:15 PM 66.2 °F - 21.2 °F 18% 30.21 in 10.0 mi Calm Calm - N/A   Clear
2:35 PM 68.0 °F - 19.4 °F 16% 30.20 in 10.0 mi Calm Calm - N/A   Clear
2:55 PM 68.0 °F - 21.2 °F 17% 30.20 in 10.0 mi Calm Calm - N/A   Clear
3:15 PM 68.0 °F - 21.2 °F 17% 30.20 in 10.0 mi West 3.5 mph - N/A   Clear
3:35 PM 68.0 °F - 23.0 °F 18% 30.20 in 10.0 mi Calm Calm - N/A   Clear
3:55 PM 68.0 °F - 21.2 °F 17% 30.19 in 10.0 mi WNW 3.5 mph - N/A   Clear
4:15 PM 66.2 °F - 24.8 °F 21% 30.20 in 10.0 mi NW 3.5 mph - N/A   Clear
4:35 PM 66.2 °F - 24.8 °F 21% 30.20 in 10.0 mi NNW 3.5 mph - N/A   Clear
4:55 PM 64.4 °F - 28.4 °F 26% 30.20 in 10.0 mi NNW 3.5 mph - N/A   Clear
5:15 PM 62.6 °F - 28.4 °F 27% 30.20 in 10.0 mi Calm Calm - N/A   Clear
5:35 PM 62.6 °F - 32.0 °F 32% 30.20 in 10.0 mi Calm Calm - N/A   Clear
5:55 PM 60.8 °F - 32.0 °F 34% 30.20 in 10.0 mi Calm Calm - N/A   Clear
6:15 PM 59.0 °F - 35.6 °F 42% 30.19 in 10.0 mi Calm Calm - N/A   Clear
6:35 PM 57.2 °F - 37.4 °F 48% 30.20 in 10.0 mi Calm Calm - N/A   Clear
6:55 PM 57.2 °F - 37.4 °F 48% 30.20 in 10.0 mi Calm Calm - N/A   Clear
7:15 PM 53.6 °F - 39.2 °F 58% 30.20 in 10.0 mi Calm Calm - N/A   Clear
7:35 PM 57.2 °F - 35.6 °F 44% 30.20 in 10.0 mi Calm Calm - N/A   Clear
7:55 PM 55.4 °F - 39.2 °F 54% 30.20 in 10.0 mi Calm Calm - N/A   Clear
8:15 PM 55.4 °F - 41.0 °F 58% 30.19 in 10.0 mi Calm Calm - N/A   Clear
8:35 PM 53.6 °F - 39.2 °F 58% 30.20 in 10.0 mi Calm Calm - N/A   Clear
8:55 PM 55.4 °F - 41.0 °F 58% 30.19 in 10.0 mi Calm Calm - N/A   Clear
9:15 PM 55.4 °F - 41.0 °F 58% 30.19 in 10.0 mi Calm Calm - N/A   Clear
9:55 PM 55.4 °F - 41.0 °F 58% 30.20 in 10.0 mi Calm Calm - N/A   Clear
10:15 PM 53.6 °F - 44.6 °F 72% 30.19 in 10.0 mi Calm Calm - N/A   Clear
10:35 PM 55.4 °F - 44.6 °F 67% 30.20 in 10.0 mi Calm Calm - N/A   Clear
10:55 PM 55.4 °F - 44.6 °F 67% 30.20 in 10.0 mi Calm Calm - N/A   Clear
11:15 PM 53.6 °F - 44.6 °F 72% 30.20 in 10.0 mi Calm Calm - N/A   Clear
11:35 PM 53.6 °F - 46.4 °F 77% 30.18 in 10.0 mi Calm Calm - N/A   Clear
11:55 PM 53.6 °F - 46.4 °F 77% 30.18 in 10.0 mi Calm Calm - N/A   Clear